Content
SEND FEEDBACK

Daily
Averages
Monthly
Summary
Spain

BILBAO, SPAIN


Home > Europe > Spain
Elevation: 112 feet     Latitude: 43 18N     Longitude: 002 56W

WEATHER
 
SELECT A DAY
Number of Records: 226,582;   Date Range: 7/1/96 - 7/23/14
 
SHARE

PRINT THIS DATA

[ ← Previous Day ]
WEATHER ALMANAC - JANUARY 18, 2013
[ Next Day → ]
[ °C ]   °F
Weather ElementAverageHighLow
Temperature54.3 °F64.4 °F (5:00 pm)50 °F (5:30 am)
Dewpoint51.8 °F53.6 °F (6:30 am)48.2 °F (9:00 pm)
Humidity91.6 %100 % (5:30 am)64 % (5:00 pm)
Barometer29.52 in29.68 in (5:30 am)29.33 in (4:30 pm)
Wind Speed5.6 mph21.9 mph (6:00 pm)
Wind Gust33.4 mph (6:00 pm)
Weather ElementAverage
Visibility5.1 mi
Wind DirectionSSE (141 °)

Weather ElementTotal
Precipitation---
Heating Degree Days7.8 (Base 65)
Growing Degree Days7.2 (Base 50)
Averaged from 39 records on January 18, 2013
WEATHER CONDITIONS BREAKOUT
WIND DIRECTION BREAKOUT
WEATHER BY HOUR - JANUARY 18, 2013
[ °C ]   °F
Local TimeTemperatureDewpointHumidityBarometerVisibilityWind DirectionWind SpeedGust SpeedPrecipitationEventsConditions
5:30 AM50.0 °F50.0 °F100 %29.68 in4.3 miCalmRainLight Rain
6:00 AM55.4 °F51.8 °F88 %29.68 in5.6 miNW (310°)11.5 mphRainLight Rain
6:30 AM55.4 °F53.6 °F94 %29.68 in5.6 miWNW (300°)15.0 mphRainLight Rain
7:00 AM55.4 °F53.6 °F94 %29.68 in6.2 miNW (310°)11.5 mphMostly Cloudy
7:30 AM55.4 °F53.6 °F94 %29.68 in6.2 miWNW (300°)6.9 mphMostly Cloudy
8:00 AM55.4 °F53.6 °F94 %29.68 in6.2 miNW (310°)10.4 mphMostly Cloudy
8:30 AM55.4 °F53.6 °F94 %29.68 in6.2 miWNW (300°)6.9 mphMostly Cloudy
9:00 AM55.4 °F53.6 °F94 %29.68 in6.2 miWNW (300°)6.9 mphMostly Cloudy
9:30 AM55.4 °F53.6 °F94 %29.65 in6.2 miWNW (300°)3.5 mphMostly Cloudy
10:00 AM55.4 °F51.8 °F88 %29.68 in6.2 miVariable2.3 mphMostly Cloudy
10:30 AM53.6 °F51.8 °F94 %29.68 in6.2 miVariable1.2 mphRainLight Rain
10:49 AM53.6 °F51.8 °F94 %29.65 in1.9 miVariable2.3 mphRainLight Rain
11:00 AM53.6 °F51.8 °F94 %29.65 in1.9 miVariable4.6 mphRainLight Rain
11:30 AM53.6 °F51.8 °F94 %29.65 in2.5 miVariable1.2 mphRainLight Rain
11:53 AM53.6 °F51.8 °F94 %29.62 in6.2 miVariable2.3 mphMostly Cloudy
12:00 PM53.6 °F51.8 °F94 %29.62 in6.2 miVariable2.3 mphMostly Cloudy
12:30 PM55.4 °F53.6 °F94 %29.59 in6.2 miSE (140°)3.5 mphMostly Cloudy
1:00 PM55.4 °F51.8 °F88 %29.56 in6.2 miEast (100°)4.6 mphMostly Cloudy
1:30 PM55.4 °F51.8 °F88 %29.53 in6.2 miESE (120°)5.8 mphScattered Clouds
2:00 PM55.4 °F53.6 °F94 %29.50 in6.2 miESE (110°)6.9 mphRainLight Rain
2:30 PM55.4 °F53.6 °F94 %29.47 in6.2 miESE (110°)6.9 mphRainLight Rain
3:00 PM57.2 °F53.6 °F88 %29.42 in6.2 miESE (120°)8.1 mphMostly Cloudy
3:30 PM57.2 °F53.6 °F88 %29.39 in6.2 miESE (120°)6.9 mphScattered Clouds
4:00 PM62.6 °F53.6 °F72 %29.36 in6.2 miSE (130°)3.5 mphScattered Clouds
4:30 PM62.6 °F53.6 °F72 %29.33 in6.2 miVariable3.5 mphScattered Clouds
5:00 PM64.4 °F51.8 °F64 %29.33 in6.2 miWSW (250°)10.4 mphScattered Clouds
5:30 PM59.0 °F53.6 °F82 %29.36 in3.7 miWest (280°)9.2 mph23.0 mphRainLight Rain
6:00 PM53.6 °F51.8 °F94 %29.39 in3.1 miNW (310°)21.9 mph33.4 mphRainLight Rain
6:30 PM51.8 °F51.8 °F100 %29.42 in3.1 miNW (320°)10.4 mphRainLight Rain
7:00 PM51.8 °F50.0 °F94 %29.44 in4.3 miWNW (290°)3.5 mphRainLight Rain
7:30 PM51.8 °F50.0 °F94 %29.44 in2.2 miWNW (300°)6.9 mphRainLight Rain
8:00 PM50.0 °F50.0 °F100 %29.44 in3.1 miVariable2.3 mphRainLight Rain
8:30 PM50.0 °F50.0 °F100 %29.42 in4.3 miCalmRainLight Rain
9:00 PM50.0 °F48.2 °F94 %29.42 in5.0 miVariable1.2 mphRainLight Rain
9:30 PM50.0 °F50.0 °F100 %29.42 in5.0 miCalmRainLight Rain
10:00 PM50.0 °F48.2 °F94 %29.39 in5.0 miVariable2.3 mphRainLight Rain
10:30 PM50.0 °F48.2 °F94 %29.36 in5.0 miESE (110°)4.6 mphRainLight Rain
11:00 PM50.0 °F48.2 °F94 %29.36 in5.0 miSE (140°)3.5 mphRainLight Rain
11:30 PM50.0 °F48.2 °F94 %29.33 in5.0 miESE (120°)3.5 mphRainLight Rain
Hourly data recorded from LEBB, located miles away from Bilbao, Spain







STORIES FROM OUR PARTNERS